Location: Bakov nad Jizerou
(50.4784°N, 14.9394°E)
Time: 09:26:43
(UTC+00:00)

Cosmos 2173 Rocket - Pass Details

Date: 16 June 2021
Orbit: 945 x 1000 km, 83.0° (Epoch: 04 August)

Event Time Altitude Azimuth Distance (km) Brightness Sun altitude
Rises 20:13:50 0° 350° (N) 3,728 8.3 -7.4°
Reaches altitude 10° 20:16:23 10° 352° (N) 2,779 7.5 -7.7°
Maximum altitude 20:22:47 77° 79° (E) 1,030 4.1 -8.3°
Drops below altitude 10° 20:29:10 10° 166° (SSE) 2,764 5.8 -8.9°
Enters shadow 20:29:31 - 166° (SSE) 2,894 5.9 -8.9°
